Location: El Carrer d�Abaix
(41.5797°N, 2.1791°E)
Time: 21:35:12
(UTC+00:00)

Cosmos 2082 Rocket - Pass Details

Date: 09 October 2020
Orbit: 834 x 853 km, 71.0° (Epoch: 27 October)

Event Time Altitude Azimuth Distance (km) Brightness Sun altitude
Rises 19:03:57 0° 322° (NW) 3,396 6.1 -20.4°
Reaches altitude 10° 19:06:52 10° 308° (NW) 2,460 5.5 -20.9°
Maximum altitude 19:11:06 22° 259° (W) 1,746 4.6 -21.7°
Drops below altitude 10° 19:15:21 10° 210° (SSW) 2,456 4.8 -22.5°
Sets 19:18:17 0° 196° (SSW) 3,390 5.4 -23.0°
